#timestamp,LO_Frequency,Hit,StdDev 
1605031215.9,286047004.7,N
1605031235.7,286047006.4,N
1605031255.5,286047007.2,N
1605031275.4,286047004.6,N
1605031295.2,286047007.4,Y
1605031315.1,286047002.6,P
1605031316.0,286047002.6,N
1605031335.8,286047005.8,P
1605031355.6,286047003.5,N
1605031375.5,286047004.8,Y
1605031395.3,286047001.6,P
1605031415.1,286047000.3,N
1605031435.9,286047000.8,N
1605031455.7,286046998.3,N
1605031475.6,286046997.4,N
1605031495.4,286046995.2,N
1605031515.2,286046995.9,N
1605031535.1,286046994.3,N
1605031536.0,286046994.3,N
1605031555.8,286046992.9,N
1605031575.6,286046992.1,N
1605031595.5,286046996.2,N
1605031615.3,286046994.5,N
1605031635.2,286046993.3,N
1605031655.9,286046991.8,N
1605031675.7,286046996.4,N
1605031695.6,286046997.9,N
1605031715.4,286046996.5,N
1605031735.2,286046997.5,N
1605031755.1,286046996.2,N
1605031756.0,286046996.2,N
1605031775.8,286046993.5,N
1605031795.7,286046997.9,N
1605031815.5,286046995.9,N
1605031835.3,286046993.7,N
1605031855.2,286046994.1,N
1605031875.0,286046992.8,N
1605031875.9,286046992.8,N
1605031895.7,286046991.7,N
1605031915.6,286046994.4,N
1605031935.4,286046990.1,Y
1605031955.3,286046999.2,P
1605031975.1,286046998.3,N
1605031976.0,286046998.3,N
1605031995.8,286046998.9,N
1605032015.7,286047002.7,N
1605032035.5,286047006.0,N
1605032055.3,286047004.1,N
1605032075.2,286047002.6,N
1605032095.0,286047001.2,N
1605032095.9,286047001.2,N
1605032115.8,286047000.7,N
1605032135.6,286046998.4,N
1605032155.4,286046996.9,N
1605032175.3,286046998.6,N
1605032195.1,286046998.6,N
1605032215.8,286046998.5,N
1605032235.7,286047000.7,N
1605032255.5,286047001.2,N
1605032275.4,286046999.2,N
1605032295.2,286046998.8,N
1605032315.0,286046998.6,N
1605032315.9,286046998.6,N
1605032335.8,286046999.1,N
1605032355.6,286046997.5,N
1605032375.4,286046995.4,N
1605032395.3,286046994.4,N
1605032415.1,286046990.7,Y
1605032435.9,286046990.7,P
1605032455.7,286046994.8,N
1605032475.5,286046994.8,N
1605032495.4,286046993.9,N
1605032515.2,286046994.2,N
1605032535.1,286046993.9,N
1605032536.0,286046993.9,N
1605032555.8,286046995.8,N
1605032575.6,286046995.8,N
1605032595.5,286046996.6,N
1605032615.3,286046998.1,N
1605032635.1,286046996.9,N
1605032655.9,286046994.9,N
1605032675.7,286046997.5,N
1605032695.6,286046995.2,N
1605032715.4,286046995.6,N
1605032735.2,286046997.1,N
1605032755.1,286046995.6,N
1605032756.0,286046995.6,N
1605032775.8,286046993.4,Y
1605032795.7,286047000.7,P
1605032815.5,286047000.0,N
1605032835.3,286047002.8,N
1605032855.2,286046999.7,N
1605032875.9,286046997.2,N
1605032895.7,286046997.9,N
1605032915.6,286046994.9,N
1605032935.4,286046994.1,N
1605032955.3,286046990.6,Y
1605032975.1,286046994.3,P
1605032976.0,286046994.3,P
1605032995.8,286046996.1,N
1605033015.7,286046997.2,N
1605033035.5,286046998.5,N
1605033055.3,286046999.8,N
1605033075.2,286047001.6,N
1605033095.0,286047002.7,N
1605033095.9,286047002.7,N
1605033115.8,286047000.1,N
1605033135.6,286047001.1,N
1605033155.4,286046991.8,N
1605033175.3,286046991.4,N
1605033195.1,286046990.4,N
1605033215.8,286046992.8,N
1605033235.7,286046991.1,N
1605033255.5,286046991.9,N
1605033275.4,286046993.7,N
1605033295.2,286046999.2,N
1605033315.0,286047002.6,N
1605033315.9,286047002.6,N
1605033335.8,286047000.3,N
1605033355.6,286047004.3,N
1605033375.5,286047004.0,N
1605033395.3,286047004.2,N
1605033415.1,286047006.0,N
1605033435.9,286047002.9,N
1605033455.7,286047006.9,N
1605033475.5,286047008.9,N
1605033495.4,286047006.4,N
1605033515.2,286047007.6,N
1605033535.1,286047005.8,N
1605033536.0,286047005.8,N
1605033555.8,286047007.6,N
1605033575.6,286047006.4,N
1605033595.5,286047009.1,N
1605033615.3,286047008.3,N
1605033635.2,286047006.5,N
1605033655.9,286047006.2,N
1605033675.7,286047006.2,N
1605033695.6,286047008.8,N
1605033715.4,286047007.7,N
1605033735.2,286047006.5,N
1605033755.1,286047004.7,N
1605033756.0,286047004.7,N
1605033775.8,286047007.1,N
1605033795.7,286047007.2,N
1605033815.5,286047006.9,N
1605033835.3,286047009.2,Y
1605033855.2,286047002.6,P
1605033875.0,286047002.5,N
1605033875.9,286047002.5,N
1605033895.8,286047004.0,N
1605033915.6,286047001.7,N
1605033935.4,286047002.6,N
1605033955.3,286047005.3,Y
1605033975.1,286047002.4,P
1605033995.9,286047000.2,N
1605034015.7,286047001.9,N
1605034035.5,286047000.1,N
1605034055.4,286046998.3,N
1605034075.2,286046999.0,N
1605034095.1,286046999.9,N
1605034096.0,286046999.9,N
1605034115.8,286047002.1,N
1605034135.6,286047004.0,N
1605034155.5,286047003.1,N
1605034175.3,286047000.2,N
1605034195.1,286047000.7,N
1605034245.9,286046997.3,E
1605034255.8,286046997.3,N
1605034275.7,286046998.9,P
1605034295.5,286047000.2,N
1605034315.4,286047002.3,N
1605034335.2,286047005.9,Y
1605034355.0,286047009.2,P
1605034355.9,286047009.2,N
1605034375.8,286047011.9,N
1605034395.6,286047008.5,N
1605034415.5,286047010.8,N
1605034435.3,286047008.7,N
1605034455.1,286047007.0,N
1605034475.9,286047007.1,N
1605034495.7,286047003.7,N
1605034515.5,286047003.4,N
1605034535.4,286047004.5,N
1605034555.2,286047007.4,N
1605034575.1,286047006.9,N
1605034576.0,286047006.9,N
1605034595.8,286047006.3,N
1605034615.6,286047005.4,N
1605034635.5,286047008.8,Y
1605034655.3,286046999.8,P
1605034675.1,286047003.7,N
1605034695.9,286047001.8,N
1605034715.7,286047001.0,N
1605034735.6,286047000.7,N
1605034755.4,286046998.3,N
1605034775.2,286047000.1,N
1605034795.1,286046999.1,N
1605034796.0,286046999.1,N
